Glendive, MT

11:45 AM MST on February 06, 2016 (GMT -0700)
Dawson Community

Weather History for KGDV - July, 2012

Change the Weather History Date:

Monday, July 16, 2012

  Actual Average (KMLS) Record (KMLS)
Temperature  
Mean Temperature 76 °F 74 °F  
Max Temperature 89 °F 89 °F 108 °F (1966)
Min Temperature 62 °F 60 °F 45 °F (1999)
Degree Days  
Heating Degree Days 0 0  
Month to date heating degree days 10  
Since 1 June heating degree days 99  
Since 1 July heating degree days 10  
Cooling Degree Days 10 10  
Month to date cooling degree days 133  
Year to date cooling degree days 260  
Since 1 June cooling degree days 240  
Growing Degree Days 26 (Base 50)    
Moisture  
Dew Point 56 °F    
Average Humidity 49    
Maximum Humidity 83    
Minimum Humidity 29    
Precipitation  
Precipitation 0.00 in 0.05 in 0.78 in (2002)
Month to date precipitation 0.90  
Year to date precipitation 8.11  
Sea Level Pressure  
Sea Level Pressure 29.86 in    
Wind  
Wind Speed 8 mph (NW)    
Max Wind Speed 14 mph    
Max Gust Speed -    
Visibility 10 miles    
Events      
T = Trace of Precipitation, MM = Missing Value Source: NWS Daily Summary

Daily Weather History Graph

Daily Weather History Graph

Search for Another Location

Airport or City:

Trip Planner

Search our weather history database for the weather conditions in past years. The results will help you decide how hot, cold, wet, or windy it might be!

Date:

Astronomy

Jul. 16, 2012 Rise Set
Actual Time 5:20 AM MDT 8:49 PM MDT
Civil Twilight 4:42 AM MDT 9:27 PM MDT
Nautical Twilight 3:51 AM MDT 10:17 PM MDT
Astronomical Twilight 2:45 AM MDT 11:23 PM MDT
Moon 3:06 AM MDT (7/16) 6:56 PM MDT (7/16)
Length of Visible Light 16h 45m
Length of Day
15h 29m
Waning Crescent, 6% of the Moon is Illuminated
Jul 16
Waning Crescent
Jul 18
New
Jul 26
First Quarter
Aug 1
Full
Aug 9
Last Quarter

Hourly Weather History & Observations

Time (MDT) Temp. Heat Index Dew Point Humidity Pressure Visibility Wind Dir Wind Speed Gust Speed Precip Events Conditions
12:35 AM 71.6 °F - 59.0 °F 64% 29.81 in 10.0 mi North 8.1 mph - N/A   Clear
12:55 AM 71.6 °F - 57.2 °F 60% 29.81 in 10.0 mi North 10.4 mph - N/A   Clear
1:15 AM 69.8 °F - 59.0 °F 68% 29.82 in 10.0 mi North 9.2 mph - N/A   Clear
1:35 AM 71.6 °F - 57.2 °F 60% 29.81 in 10.0 mi North 9.2 mph - N/A   Clear
2:15 AM 69.8 °F - 57.2 °F 64% 29.82 in 10.0 mi North 6.9 mph - N/A   Clear
2:35 AM 69.8 °F - 57.2 °F 64% 29.82 in 10.0 mi NNW 4.6 mph - N/A   Clear
2:55 AM 68.0 °F - 57.2 °F 68% 29.82 in 10.0 mi NW 6.9 mph - N/A   Clear
3:15 AM 68.0 °F - 57.2 °F 68% 29.82 in 10.0 mi NW 8.1 mph - N/A   Clear
3:35 AM 66.2 °F - 57.2 °F 73% 29.83 in 10.0 mi WNW 5.8 mph - N/A   Clear
3:55 AM 66.2 °F - 57.2 °F 73% 29.83 in 10.0 mi WNW 6.9 mph - N/A   Clear
4:15 AM 64.4 °F - 57.2 °F 77% 29.84 in 10.0 mi WNW 5.8 mph - N/A   Clear
4:35 AM 64.4 °F - 57.2 °F 77% 29.84 in 10.0 mi WNW 4.6 mph - N/A   Clear
4:55 AM 62.6 °F - 57.2 °F 82% 29.84 in 10.0 mi NW 6.9 mph - N/A   Clear
5:15 AM 64.4 °F - 57.2 °F 77% 29.85 in 10.0 mi NW 4.6 mph - N/A   Clear
5:35 AM 64.4 °F - 59.0 °F 83% 29.86 in 10.0 mi WNW 6.9 mph - N/A   Clear
5:55 AM 66.2 °F - 60.8 °F 83% 29.86 in 10.0 mi WNW 8.1 mph - N/A   Clear
6:35 AM 68.0 °F - 59.0 °F 73% 29.88 in 10.0 mi NW 9.2 mph - N/A   Clear
6:55 AM 68.0 °F - 59.0 °F 73% 29.88 in 10.0 mi NW 11.5 mph - N/A   Clear
7:35 AM 69.8 °F - 59.0 °F 68% 29.89 in 10.0 mi NW 11.5 mph - N/A   Mostly Cloudy
7:55 AM 69.8 °F - 59.0 °F 68% 29.90 in 10.0 mi NW 11.5 mph - N/A   Scattered Clouds
8:15 AM 71.6 °F - 59.0 °F 64% 29.90 in 10.0 mi NW 11.5 mph - N/A   Clear
8:35 AM 73.4 °F - 59.0 °F 61% 29.90 in 10.0 mi NW 13.8 mph - N/A   Partly Cloudy
8:55 AM 75.2 °F - 59.0 °F 57% 29.91 in 10.0 mi NW 12.7 mph - N/A   Scattered Clouds
9:15 AM 77.0 °F - 59.0 °F 54% 29.91 in 10.0 mi NNW 11.5 mph - N/A   Scattered Clouds
9:35 AM 78.8 °F - 57.2 °F 47% 29.90 in 10.0 mi NNW 11.5 mph - N/A   Clear
9:55 AM 78.8 °F - 57.2 °F 47% 29.90 in 10.0 mi NW 8.1 mph - N/A   Clear
10:15 AM 78.8 °F - 55.4 °F 44% 29.90 in 10.0 mi NW 12.7 mph - N/A   Clear
10:35 AM 80.6 °F 80.8 °F 57.2 °F 45% 29.90 in 10.0 mi NW 12.7 mph - N/A   Clear
10:55 AM 80.6 °F 80.5 °F 55.4 °F 42% 29.90 in 10.0 mi NNW 11.5 mph - N/A   Clear
11:15 AM 82.4 °F 81.7 °F 55.4 °F 39% 29.90 in 10.0 mi NW 10.4 mph - N/A   Clear
11:35 AM 82.4 °F 81.7 °F 55.4 °F 39% 29.90 in 10.0 mi NW 11.5 mph - N/A   Clear
11:55 AM 82.4 °F 81.7 °F 55.4 °F 39% 29.90 in 10.0 mi WNW 8.1 mph - N/A   Partly Cloudy
12:15 PM 84.2 °F 83.0 °F 55.4 °F 37% 29.90 in 10.0 mi West 8.1 mph - N/A   Clear
12:35 PM 84.2 °F 83.0 °F 55.4 °F 37% 29.89 in 10.0 mi NW 4.6 mph - N/A   Clear
12:55 PM 86.0 °F 84.5 °F 55.4 °F 35% 29.89 in 10.0 mi WSW 4.6 mph - N/A   Clear
1:15 PM 86.0 °F 84.5 °F 55.4 °F 35% 29.89 in 10.0 mi NW 6.9 mph - N/A   Clear
1:35 PM 87.8 °F 85.7 °F 53.6 °F 31% 29.88 in 10.0 mi WSW 8.1 mph - N/A   Clear
1:55 PM 86.0 °F 84.5 °F 55.4 °F 35% 29.89 in 10.0 mi SW 4.6 mph - N/A   Clear
2:15 PM 87.8 °F 86.1 °F 55.4 °F 33% 29.88 in 10.0 mi WSW 4.6 mph - N/A   Clear
2:35 PM 87.8 °F 86.1 °F 55.4 °F 33% 29.88 in 10.0 mi WSW 5.8 mph - N/A   Clear
2:55 PM 87.8 °F 86.1 °F 55.4 °F 33% 29.87 in 10.0 mi NNW 3.5 mph - N/A   Clear
3:15 PM 89.6 °F 88.1 °F 57.2 °F 33% 29.86 in 10.0 mi West 9.2 mph - N/A   Clear
3:35 PM 87.8 °F 85.7 °F 53.6 °F 31% 29.86 in 10.0 mi West 4.6 mph - N/A   Clear
3:55 PM 87.8 °F 86.1 °F 55.4 °F 33% 29.86 in 10.0 mi WNW 8.1 mph - N/A   Clear
4:15 PM 87.8 °F 85.7 °F 53.6 °F 31% 29.85 in 10.0 mi NNW 5.8 mph - N/A   Clear
4:35 PM 89.6 °F 87.7 °F 55.4 °F 31% 29.85 in 10.0 mi WNW 8.1 mph - N/A   Clear
4:55 PM 89.6 °F 87.3 °F 53.6 °F 29% 29.84 in 10.0 mi Calm Calm - N/A   Clear
5:15 PM 89.6 °F 87.7 °F 55.4 °F 31% 29.83 in 10.0 mi NNW 11.5 mph - N/A   Clear
5:35 PM 89.6 °F 87.7 °F 55.4 °F 31% 29.83 in 10.0 mi North 9.2 mph - N/A   Clear
5:55 PM 87.8 °F 86.1 °F 55.4 °F 33% 29.84 in 10.0 mi NW 5.8 mph - N/A   Clear
6:15 PM 89.6 °F 87.3 °F 53.6 °F 29% 29.83 in 10.0 mi North 8.1 mph - N/A   Clear
6:35 PM 87.8 °F 86.1 °F 55.4 °F 33% 29.83 in 10.0 mi North 6.9 mph - N/A   Clear
6:55 PM 87.8 °F 85.7 °F 53.6 °F 31% 29.83 in 10.0 mi NNW 12.7 mph - N/A   Clear
7:15 PM 87.8 °F 85.7 °F 53.6 °F 31% 29.83 in 10.0 mi NNW 8.1 mph - N/A   Clear
7:35 PM 86.0 °F 84.2 °F 53.6 °F 33% 29.84 in 10.0 mi North 10.4 mph - N/A   Clear
7:55 PM 84.2 °F 82.8 °F 53.6 °F 35% 29.84 in 10.0 mi North 9.2 mph - N/A   Clear
8:15 PM 84.2 °F 82.8 °F 53.6 °F 35% 29.84 in 10.0 mi North 9.2 mph - N/A   Clear
8:35 PM 82.4 °F 81.4 °F 53.6 °F 37% 29.85 in 10.0 mi North 8.1 mph - N/A   Clear
8:55 PM 78.8 °F - 53.6 °F 42% 29.85 in 10.0 mi North 9.2 mph - N/A   Clear
9:15 PM 78.8 °F - 53.6 °F 42% 29.85 in 10.0 mi North 9.2 mph - N/A   Clear
9:35 PM 78.8 °F - 53.6 °F 42% 29.85 in 10.0 mi North 9.2 mph - N/A   Clear
9:55 PM 75.2 °F - 53.6 °F 47% 29.86 in 10.0 mi North 8.1 mph - N/A   Clear
10:15 PM 75.2 °F - 53.6 °F 47% 29.86 in 10.0 mi North 8.1 mph - N/A   Clear
10:35 PM 75.2 °F - 53.6 °F 47% 29.87 in 10.0 mi North 9.2 mph - N/A   Clear
10:55 PM 75.2 °F - 53.6 °F 47% 29.87 in 10.0 mi North 8.1 mph - N/A   Clear
11:15 PM 75.2 °F - 51.8 °F 44% 29.87 in 10.0 mi North 8.1 mph - N/A   Clear
11:35 PM 73.4 °F - 53.6 °F 50% 29.87 in 10.0 mi North 8.1 mph - N/A   Clear
11:55 PM 73.4 °F - 53.6 °F 50% 29.88 in 10.0 mi NE 6.9 mph - N/A   Clear